Time,TemperatureF,DewpointF,PressureIn,WindDirection,WindDirectionDegrees,WindSpeedMPH,WindSpeedGustMPH,Humidity,HourlyPrecipIn,Conditions,Clouds,dailyrainin,SoftwareType,DateUTC
2013-02-10 00:00:00,22.7,18.8,29.90,WSW,248,10.1,13.6,85,0.00,,,0.09,WUHU216HW,2013-02-10 07:00:00,
2013-02-10 00:05:00,22.7,18.8,29.90,South,180,4.5,13.6,85,0.00,,,0.00,WUHU216HW,2013-02-10 07:05:00,
2013-02-10 00:10:00,22.7,18.8,29.90,West,270,11.4,13.4,85,0.00,,,0.00,WUHU216HW,2013-02-10 07:10:00,
2013-02-10 00:15:00,22.7,18.8,29.91,WSW,248,5.8,12.8,85,0.00,,,0.00,WUHU216HW,2013-02-10 07:15:00,
2013-02-10 00:20:00,22.5,18.6,29.92,WSW,248,4.7,11.4,85,0.00,,,0.00,WUHU216HW,2013-02-10 07:20:00,
2013-02-10 00:25:00,22.5,18.6,29.92,WSW,248,6.7,10.1,85,0.00,,,0.00,WUHU216HW,2013-02-10 07:25:00,
2013-02-10 00:30:00,22.7,18.8,29.92,SW,225,5.8,8.9,85,0.00,,,0.00,WUHU216HW,2013-02-10 07:30:00,
2013-02-10 00:35:00,22.9,19.0,29.92,SW,225,4.3,12.3,85,0.00,,,0.00,WUHU216HW,2013-02-10 07:35:00,
2013-02-10 00:40:00,22.9,19.0,29.92,SW,225,5.1,12.3,85,0.00,,,0.00,WUHU216HW,2013-02-10 07:40:00,
2013-02-10 00:45:00,22.7,19.1,29.93,West,270,8.9,11.2,86,0.00,,,0.00,WUHU216HW,2013-02-10 07:45:00,
2013-02-10 00:50:00,22.7,18.8,29.92,WNW,293,3.6,11.2,85,0.00,,,0.00,WUHU216HW,2013-02-10 07:50:00,
2013-02-10 00:55:00,22.7,18.8,29.92,SW,225,2.7,10.5,85,0.00,,,0.00,WUHU216HW,2013-02-10 07:55:00,
2013-02-10 01:00:00,22.5,18.6,29.92,SW,225,12.1,12.1,85,0.00,,,0.00,WUHU216HW,2013-02-10 08:00:00,
2013-02-10 01:05:00,22.3,18.5,29.92,SW,225,8.5,12.1,85,0.00,,,0.00,WUHU216HW,2013-02-10 08:05:00,
2013-02-10 01:10:00,22.3,18.5,29.92,SW,225,10.3,12.8,85,0.00,,,0.00,WUHU216HW,2013-02-10 08:10:00,
2013-02-10 01:15:00,22.3,18.5,29.92,WSW,248,5.6,12.8,85,0.00,,,0.00,WUHU216HW,2013-02-10 08:15:00,
2013-02-10 01:20:00,22.3,18.5,29.92,WSW,248,6.9,11.6,85,0.00,,,0.00,WUHU216HW,2013-02-10 08:20:00,
2013-02-10 01:25:00,22.3,18.5,29.92,WSW,248,7.2,11.2,85,0.00,,,0.00,WUHU216HW,2013-02-10 08:25:00,
2013-02-10 01:30:00,22.3,18.5,29.92,WSW,248,4.9,10.3,85,0.00,,,0.00,WUHU216HW,2013-02-10 08:30:00,
2013-02-10 01:35:00,22.3,18.5,29.92,West,270,5.6,11.9,85,0.00,,,0.00,WUHU216HW,2013-02-10 08:35:00,
2013-02-10 01:40:00,22.1,18.3,29.92,West,270,7.8,11.9,85,0.00,,,0.00,WUHU216HW,2013-02-10 08:40:00,
2013-02-10 01:45:00,22.1,18.3,29.92,West,270,8.1,9.8,85,0.00,,,0.00,WUHU216HW,2013-02-10 08:45:00,
2013-02-10 01:50:00,22.3,18.5,29.92,SSW,203,6.9,13.4,85,0.00,,,0.00,WUHU216HW,2013-02-10 08:50:00,
2013-02-10 01:55:00,22.3,18.5,29.92,SW,225,4.0,13.4,85,0.00,,,0.00,WUHU216HW,2013-02-10 08:55:00,
2013-02-10 02:00:00,22.3,18.5,29.92,SW,225,1.1,7.8,85,0.00,,,0.00,WUHU216HW,2013-02-10 09:00:00,
2013-02-10 02:05:00,22.5,18.6,29.93,WSW,248,3.8,10.5,85,0.00,,,0.00,WUHU216HW,2013-02-10 09:05:00,
2013-02-10 02:10:00,22.7,18.8,29.92,South,180,8.5,10.5,85,0.00,,,0.00,WUHU216HW,2013-02-10 09:10:00,
2013-02-10 02:15:00,22.7,18.8,29.92,WSW,248,4.7,9.2,85,0.00,,,0.00,WUHU216HW,2013-02-10 09:15:00,
2013-02-10 02:20:00,22.7,18.8,29.92,WSW,248,7.2,8.5,85,0.00,,,0.00,WUHU216HW,2013-02-10 09:20:00,
2013-02-10 02:25:00,22.9,19.0,29.92,WSW,248,5.4,8.5,85,0.00,,,0.00,WUHU216HW,2013-02-10 09:25:00,
2013-02-10 02:30:00,22.9,19.0,29.92,West,270,5.6,8.9,85,0.00,,,0.00,WUHU216HW,2013-02-10 09:30:00,
2013-02-10 02:35:00,22.9,19.0,29.92,SSE,158,4.0,14.1,85,0.00,,,0.00,WUHU216HW,2013-02-10 09:35:00,
2013-02-10 02:40:00,22.7,18.8,29.92,WSW,248,4.7,14.1,85,0.00,,,0.00,WUHU216HW,2013-02-10 09:40:00,
2013-02-10 02:45:00,22.7,18.8,29.92,West,270,4.5,12.1,85,0.00,,,0.00,WUHU216HW,2013-02-10 09:45:00,
2013-02-10 02:50:00,22.7,18.8,29.92,SSE,158,8.9,12.1,85,0.00,,,0.00,WUHU216HW,2013-02-10 09:50:00,
2013-02-10 02:55:00,22.9,19.0,29.92,SSW,203,11.9,14.8,85,0.00,,,0.00,WUHU216HW,2013-02-10 09:55:00,
2013-02-10 03:00:00,23.0,19.2,29.92,WSW,248,7.6,14.8,85,0.00,,,0.00,WUHU216HW,2013-02-10 10:00:00,
2013-02-10 03:05:00,23.0,19.2,29.92,West,270,12.8,12.8,85,0.00,,,0.00,WUHU216HW,2013-02-10 10:05:00,
2013-02-10 03:10:00,23.0,19.2,29.92,NW,315,7.2,12.8,85,0.00,,,0.00,WUHU216HW,2013-02-10 10:10:00,
2013-02-10 03:15:00,23.2,19.4,29.91,SSW,203,3.6,12.8,85,0.00,,,0.00,WUHU216HW,2013-02-10 10:15:00,
2013-02-10 03:20:00,23.2,19.4,29.91,WSW,248,7.6,15.7,85,0.00,,,0.00,WUHU216HW,2013-02-10 10:20:00,
2013-02-10 03:25:00,23.2,19.4,29.91,WSW,248,7.2,15.7,85,0.00,,,0.00,WUHU216HW,2013-02-10 10:25:00,
2013-02-10 03:30:00,23.2,19.4,29.91,SW,225,2.2,8.7,85,0.00,,,0.00,WUHU216HW,2013-02-10 10:30:00,
2013-02-10 03:35:00,23.2,19.4,29.91,WSW,248,3.8,8.5,85,0.00,,,0.00,WUHU216HW,2013-02-10 10:35:00,
2013-02-10 03:40:00,23.4,19.5,29.90,WSW,248,5.6,10.3,85,0.00,,,0.00,WUHU216HW,2013-02-10 10:40:00,
2013-02-10 03:45:00,23.4,19.5,29.91,WSW,248,4.7,10.3,85,0.00,,,0.00,WUHU216HW,2013-02-10 10:45:00,
2013-02-10 03:50:00,23.4,19.5,29.90,SW,225,6.3,8.1,85,0.00,,,0.00,WUHU216HW,2013-02-10 10:50:00,
2013-02-10 03:55:00,23.4,19.5,29.90,West,270,6.5,10.5,85,0.00,,,0.00,WUHU216HW,2013-02-10 10:55:00,
2013-02-10 04:00:00,23.4,19.5,29.90,SW,225,15.0,15.0,85,0.00,,,0.00,WUHU216HW,2013-02-10 11:00:00,
2013-02-10 04:05:00,23.4,19.3,29.90,WSW,248,6.9,15.0,84,0.00,,,0.00,WUHU216HW,2013-02-10 11:05:00,
2013-02-10 04:10:00,23.4,19.3,29.90,WSW,248,8.5,15.0,84,0.00,,,0.00,WUHU216HW,2013-02-10 11:10:00,
2013-02-10 04:15:00,23.6,19.4,29.90,West,270,3.6,10.3,84,0.00,,,0.00,WUHU216HW,2013-02-10 11:15:00,
2013-02-10 04:20:00,23.6,19.4,29.90,SW,225,4.3,13.0,84,0.00,,,0.00,WUHU216HW,2013-02-10 11:20:00,
2013-02-10 04:25:00,23.4,19.3,29.90,WSW,248,4.0,13.0,84,0.00,,,0.00,WUHU216HW,2013-02-10 11:25:00,
2013-02-10 04:30:00,23.4,19.3,29.90,West,270,4.0,11.0,84,0.00,,,0.00,WUHU216HW,2013-02-10 11:30:00,
2013-02-10 04:35:00,23.4,19.3,29.90,West,270,3.4,8.5,84,0.00,,,0.00,WUHU216HW,2013-02-10 11:35:00,
2013-02-10 04:40:00,23.4,19.3,29.90,West,270,1.8,10.5,84,0.00,,,0.00,WUHU216HW,2013-02-10 11:40:00,
2013-02-10 04:45:00,23.4,19.3,29.90,WSW,248,6.3,10.5,84,0.00,,,0.00,WUHU216HW,2013-02-10 11:45:00,
2013-02-10 04:50:00,23.4,19.3,29.90,West,270,6.0,8.9,84,0.00,,,0.00,WUHU216HW,2013-02-10 11:50:00,
2013-02-10 04:55:00,23.4,19.3,29.90,West,270,2.7,8.9,84,0.00,,,0.00,WUHU216HW,2013-02-10 11:55:00,
2013-02-10 05:00:00,23.4,19.3,29.90,WSW,248,5.1,8.5,84,0.00,,,0.00,WUHU216HW,2013-02-10 12:00:00,
2013-02-10 05:05:00,23.4,19.3,29.90,South,180,3.1,9.2,84,0.00,,,0.00,WUHU216HW,2013-02-10 12:05:00,
2013-02-10 05:10:00,23.4,19.3,29.90,WSW,248,5.4,9.2,84,0.00,,,0.00,WUHU216HW,2013-02-10 12:10:00,
2013-02-10 05:15:00,23.4,19.3,29.90,WNW,293,2.9,7.2,84,0.00,,,0.00,WUHU216HW,2013-02-10 12:15:00,
2013-02-10 05:20:00,23.4,19.3,29.90,SSW,203,4.7,7.8,84,0.00,,,0.00,WUHU216HW,2013-02-10 12:20:00,
2013-02-10 05:25:00,23.4,19.3,29.90,WSW,248,2.7,7.8,84,0.00,,,0.00,WUHU216HW,2013-02-10 12:25:00,
2013-02-10 05:30:00,23.4,19.3,29.90,WSW,248,5.4,8.5,84,0.00,,,0.00,WUHU216HW,2013-02-10 12:30:00,
2013-02-10 05:35:00,23.4,19.3,29.90,West,270,11.9,11.9,84,0.00,,,0.00,WUHU216HW,2013-02-10 12:35:00,
2013-02-10 05:40:00,23.4,19.3,29.90,SSW,203,3.1,11.9,84,0.00,,,0.00,WUHU216HW,2013-02-10 12:40:00,
2013-02-10 05:45:00,23.4,19.3,29.89,WSW,248,4.0,11.9,84,0.00,,,0.00,WUHU216HW,2013-02-10 12:45:00,
2013-02-10 05:50:00,23.4,19.3,29.89,WSW,248,2.5,8.9,84,0.00,,,0.00,WUHU216HW,2013-02-10 12:50:00,
2013-02-10 05:55:00,23.4,19.3,29.89,SW,225,4.3,7.2,84,0.00,,,0.00,WUHU216HW,2013-02-10 12:55:00,
2013-02-10 06:00:00,23.4,19.3,29.89,WSW,248,7.6,9.2,84,0.00,,,0.00,WUHU216HW,2013-02-10 13:00:00,
2013-02-10 06:05:00,23.4,19.3,29.89,West,270,2.9,9.6,84,0.00,,,0.00,WUHU216HW,2013-02-10 13:05:00,
2013-02-10 06:10:00,23.4,19.3,29.90,SSW,203,3.6,9.6,84,0.00,,,0.00,WUHU216HW,2013-02-10 13:10:00,
2013-02-10 06:15:00,23.4,19.3,29.90,SSW,203,4.0,8.7,84,0.00,,,0.00,WUHU216HW,2013-02-10 13:15:00,
2013-02-10 06:20:00,23.4,19.3,29.90,WSW,248,7.6,8.9,84,0.00,,,0.00,WUHU216HW,2013-02-10 13:20:00,
2013-02-10 06:25:00,23.4,19.3,29.90,SW,225,5.4,12.5,84,0.00,,,0.00,WUHU216HW,2013-02-10 13:25:00,
2013-02-10 06:30:00,23.4,19.3,29.90,WSW,248,5.4,12.5,84,0.00,,,0.00,WUHU216HW,2013-02-10 13:30:00,
2013-02-10 06:35:00,23.4,19.3,29.90,SW,225,8.3,11.2,84,0.00,,,0.00,WUHU216HW,2013-02-10 13:35:00,
2013-02-10 06:40:00,23.4,19.3,29.90,SW,225,5.1,11.4,84,0.00,,,0.00,WUHU216HW,2013-02-10 13:40:00,
2013-02-10 06:45:00,23.4,19.3,29.90,WSW,248,9.2,13.6,84,0.00,,,0.00,WUHU216HW,2013-02-10 13:45:00,
2013-02-10 06:50:00,23.4,19.3,29.90,SW,225,2.2,13.6,84,0.00,,,0.00,WUHU216HW,2013-02-10 13:50:00,
2013-02-10 06:55:00,23.4,19.3,29.90,NW,315,6.0,11.4,84,0.00,,,0.00,WUHU216HW,2013-02-10 13:55:00,
2013-02-10 07:00:00,23.4,19.0,29.90,West,270,7.8,11.4,83,0.00,,,0.00,WUHU216HW,2013-02-10 14:00:00,
2013-02-10 07:05:00,23.4,19.3,29.90,SW,225,4.0,13.4,84,0.00,,,0.00,WUHU216HW,2013-02-10 14:05:00,
2013-02-10 07:10:00,23.4,19.3,29.90,West,270,7.6,14.3,84,0.00,,,0.00,WUHU216HW,2013-02-10 14:10:00,
2013-02-10 07:15:00,23.4,19.0,29.90,West,270,8.1,14.3,83,0.00,,,0.00,WUHU216HW,2013-02-10 14:15:00,
2013-02-10 07:20:00,23.6,19.2,29.90,West,270,8.5,11.6,83,0.00,,,0.00,WUHU216HW,2013-02-10 14:20:00,
2013-02-10 07:25:00,23.6,19.4,29.90,WSW,248,4.5,9.8,84,0.00,,,0.00,WUHU216HW,2013-02-10 14:25:00,
2013-02-10 07:30:00,23.6,19.2,29.90,West,270,12.5,12.5,83,0.00,,,0.00,WUHU216HW,2013-02-10 14:30:00,
2013-02-10 07:35:00,23.6,19.2,29.90,SSW,203,2.7,12.5,83,0.00,,,0.00,WUHU216HW,2013-02-10 14:35:00,
2013-02-10 07:40:00,23.8,19.4,29.90,West,270,8.3,9.8,83,0.00,,,0.00,WUHU216HW,2013-02-10 14:40:00,
2013-02-10 07:45:00,23.6,19.2,29.90,SSW,203,6.3,11.4,83,0.00,,,0.00,WUHU216HW,2013-02-10 14:45:00,
2013-02-10 07:50:00,23.6,19.2,29.90,SW,225,5.6,11.4,83,0.00,,,0.00,WUHU216HW,2013-02-10 14:50:00,
2013-02-10 07:55:00,23.8,19.4,29.90,WSW,248,4.0,10.5,83,0.00,,,0.00,WUHU216HW,2013-02-10 14:55:00,
2013-02-10 08:00:00,23.8,19.6,29.90,South,180,7.2,11.2,84,0.00,,,0.00,WUHU216HW,2013-02-10 15:00:00,
2013-02-10 08:05:00,23.8,19.6,29.90,SW,225,3.6,17.0,84,0.00,,,0.00,WUHU216HW,2013-02-10 15:05:00,
2013-02-10 08:10:00,23.9,19.8,29.90,WSW,248,8.5,17.0,84,0.00,,,0.00,WUHU216HW,2013-02-10 15:10:00,
2013-02-10 08:15:00,24.1,20.0,29.90,WSW,248,9.4,11.4,84,0.00,,,0.00,WUHU216HW,2013-02-10 15:15:00,
2013-02-10 08:20:00,24.3,20.2,29.90,WNW,293,4.9,12.1,84,0.00,,,0.00,WUHU216HW,2013-02-10 15:20:00,
2013-02-10 08:25:00,24.5,20.3,29.90,WSW,248,5.4,12.1,84,0.00,,,0.00,WUHU216HW,2013-02-10 15:25:00,
2013-02-10 08:30:00,24.7,20.3,29.90,West,270,5.4,8.5,83,0.00,,,0.00,WUHU216HW,2013-02-10 15:30:00,
2013-02-10 08:35:00,24.8,20.4,29.90,WSW,248,4.3,10.1,83,0.00,,,0.00,WUHU216HW,2013-02-10 15:35:00,
2013-02-10 08:40:00,25.0,20.6,29.91,WSW,248,6.0,13.0,83,0.00,,,0.00,WUHU216HW,2013-02-10 15:40:00,
2013-02-10 08:45:00,25.4,21.0,29.91,SSW,203,5.8,13.0,83,0.00,,,0.00,WUHU216HW,2013-02-10 15:45:00,
2013-02-10 08:50:00,25.9,21.2,29.91,West,270,9.2,11.9,82,0.00,,,0.00,WUHU216HW,2013-02-10 15:50:00,
2013-02-10 08:55:00,26.3,21.8,29.90,West,270,9.2,15.0,83,0.00,,,0.00,WUHU216HW,2013-02-10 15:55:00,
2013-02-10 09:00:00,26.6,22.2,29.91,WSW,248,6.9,15.0,83,0.00,,,0.00,WUHU216HW,2013-02-10 16:00:00,
2013-02-10 09:05:00,27.0,22.1,29.91,NNW,338,8.7,14.8,82,0.00,,,0.00,WUHU216HW,2013-02-10 16:05:00,
2013-02-10 09:10:00,27.0,21.9,29.90,WSW,248,7.2,14.1,81,0.00,,,0.00,WUHU216HW,2013-02-10 16:10:00,
2013-02-10 09:15:00,27.2,22.1,29.90,WSW,248,8.5,13.4,81,0.00,,,0.00,WUHU216HW,2013-02-10 16:15:00,
2013-02-10 09:20:00,27.7,22.6,29.91,SW,225,9.6,10.3,81,0.00,,,0.00,WUHU216HW,2013-02-10 16:20:00,
2013-02-10 09:25:00,28.1,22.4,29.90,WSW,248,7.8,12.3,79,0.00,,,0.00,WUHU216HW,2013-02-10 16:25:00,
2013-02-10 09:30:00,28.4,23.0,29.90,WSW,248,5.6,12.3,80,0.00,,,0.00,WUHU216HW,2013-02-10 16:30:00,
2013-02-10 09:35:00,28.8,23.1,29.90,WNW,293,5.6,13.6,79,0.00,,,0.00,WUHU216HW,2013-02-10 16:35:00,
2013-02-10 09:40:00,29.2,23.5,29.90,West,270,6.9,13.6,79,0.00,,,0.00,WUHU216HW,2013-02-10 16:40:00,
2013-02-10 09:45:00,29.5,23.5,29.90,SW,225,13.4,13.4,78,0.00,,,0.00,WUHU216HW,2013-02-10 16:45:00,
2013-02-10 09:50:00,29.5,23.1,29.90,West,270,7.6,14.1,77,0.00,,,0.00,WUHU216HW,2013-02-10 16:50:00,
2013-02-10 09:55:00,29.2,22.5,29.90,South,180,12.1,14.5,76,0.00,,,0.00,WUHU216HW,2013-02-10 16:55:00,
2013-02-10 10:00:00,29.2,22.9,29.90,WSW,248,9.2,14.5,77,0.00,,,0.00,WUHU216HW,2013-02-10 17:00:00,
2013-02-10 10:05:00,29.3,22.7,29.90,SW,225,6.9,15.7,76,0.00,,,0.00,WUHU216HW,2013-02-10 17:05:00,
2013-02-10 10:10:00,29.3,22.4,29.91,SW,225,4.0,15.7,75,0.00,,,0.00,WUHU216HW,2013-02-10 17:10:00,
2013-02-10 10:15:00,29.2,22.2,29.91,South,180,3.6,15.0,75,0.00,,,0.00,WUHU216HW,2013-02-10 17:15:00,
2013-02-10 10:20:00,29.3,22.4,29.91,SW,225,5.4,15.7,75,0.00,,,0.00,WUHU216HW,2013-02-10 17:20:00,
2013-02-10 10:25:00,29.3,22.7,29.90,SW,225,9.2,15.7,76,0.00,,,0.00,WUHU216HW,2013-02-10 17:25:00,
2013-02-10 10:30:00,29.3,22.4,29.91,SW,225,8.1,15.0,75,0.00,,,0.00,WUHU216HW,2013-02-10 17:30:00,
2013-02-10 10:35:00,29.5,22.9,29.91,South,180,10.1,15.0,76,0.00,,,0.00,WUHU216HW,2013-02-10 17:35:00,
2013-02-10 10:40:00,29.9,23.2,29.91,SW,225,9.4,13.0,76,0.00,,,0.00,WUHU216HW,2013-02-10 17:40:00,
2013-02-10 10:45:00,30.2,23.6,29.91,SSW,203,11.9,13.0,76,0.01,,,0.01,WUHU216HW,2013-02-10 17:45:00,
2013-02-10 10:50:00,30.1,23.4,29.91,WSW,248,7.6,15.4,76,0.01,,,0.01,WUHU216HW,2013-02-10 17:50:00,
2013-02-10 10:55:00,29.9,23.2,29.91,SW,225,18.8,18.8,76,0.01,,,0.01,WUHU216HW,2013-02-10 17:55:00,
2013-02-10 11:00:00,29.5,22.5,29.91,SSW,203,10.1,18.8,75,0.01,,,0.01,WUHU216HW,2013-02-10 18:00:00,
2013-02-10 11:05:00,29.7,23.1,29.91,West,270,12.3,18.8,76,0.01,,,0.01,WUHU216HW,2013-02-10 18:05:00,
2013-02-10 11:10:00,29.9,23.2,29.91,West,270,9.8,14.8,76,0.01,,,0.01,WUHU216HW,2013-02-10 18:10:00,
2013-02-10 11:15:00,29.7,23.1,29.91,SSW,203,5.6,14.8,76,0.01,,,0.01,WUHU216HW,2013-02-10 18:15:00,
2013-02-10 11:20:00,29.9,23.9,29.91,WSW,248,3.4,12.5,78,0.01,,,0.01,WUHU216HW,2013-02-10 18:20:00,
2013-02-10 11:25:00,30.6,24.2,29.91,West,270,7.8,11.4,77,0.01,,,0.01,WUHU216HW,2013-02-10 18:25:00,
2013-02-10 11:30:00,30.6,24.2,29.90,SW,225,6.0,11.6,77,0.01,,,0.01,WUHU216HW,2013-02-10 18:30:00,
2013-02-10 11:35:00,31.0,24.3,29.90,SSW,203,8.5,11.6,76,0.01,,,0.01,WUHU216HW,2013-02-10 18:35:00,
2013-02-10 11:40:00,30.6,24.0,29.90,WSW,248,5.1,11.0,76,0.01,,,0.01,WUHU216HW,2013-02-10 18:40:00,
2013-02-10 11:45:00,30.2,23.6,29.90,NW,315,6.0,10.7,76,0.00,,,0.01,WUHU216HW,2013-02-10 18:45:00,
2013-02-10 11:50:00,30.2,23.9,29.90,West,270,2.2,14.8,77,0.00,,,0.01,WUHU216HW,2013-02-10 18:50:00,
2013-02-10 11:55:00,30.4,24.0,29.90,South,180,8.7,14.8,77,0.00,,,0.01,WUHU216HW,2013-02-10 18:55:00,
2013-02-10 12:00:00,30.4,24.4,29.90,South,180,6.7,12.3,78,0.00,,,0.01,WUHU216HW,2013-02-10 19:00:00,
2013-02-10 12:05:00,30.6,24.6,29.90,WSW,248,8.5,12.3,78,0.00,,,0.01,WUHU216HW,2013-02-10 19:05:00,
2013-02-10 12:10:00,30.6,24.2,29.90,West,270,14.3,14.3,77,0.00,,,0.01,WUHU216HW,2013-02-10 19:10:00,
2013-02-10 12:15:00,29.9,23.2,29.90,SSW,203,15.4,15.4,76,0.00,,,0.01,WUHU216HW,2013-02-10 19:15:00,
2013-02-10 12:20:00,29.5,22.9,29.89,WSW,248,6.9,15.4,76,0.00,,,0.01,WUHU216HW,2013-02-10 19:20:00,
2013-02-10 12:25:00,29.7,23.3,29.89,West,270,8.1,12.1,77,0.00,,,0.01,WUHU216HW,2013-02-10 19:25:00,
2013-02-10 12:30:00,29.5,22.9,29.89,West,270,5.6,12.1,76,0.00,,,0.01,WUHU216HW,2013-02-10 19:30:00,
2013-02-10 12:35:00,29.5,23.1,29.89,SW,225,5.4,12.1,77,0.00,,,0.01,WUHU216HW,2013-02-10 19:35:00,
2013-02-10 12:40:00,29.5,23.5,29.88,SW,225,7.2,10.3,78,0.00,,,0.01,WUHU216HW,2013-02-10 19:40:00,
2013-02-10 12:45:00,29.9,23.9,29.88,South,180,10.5,10.5,78,0.00,,,0.01,WUHU216HW,2013-02-10 19:45:00,
2013-02-10 12:50:00,30.1,24.0,29.88,West,270,6.3,11.2,78,0.00,,,0.01,WUHU216HW,2013-02-10 19:50:00,
2013-02-10 12:55:00,30.6,24.6,29.88,SSE,158,4.0,11.2,78,0.00,,,0.01,WUHU216HW,2013-02-10 19:55:00,
2013-02-10 13:00:00,30.6,24.6,29.88,WSW,248,7.2,11.4,78,0.00,,,0.01,WUHU216HW,2013-02-10 20:00:00,
2013-02-10 13:05:00,30.6,24.6,29.88,WSW,248,8.5,12.1,78,0.00,,,0.01,WUHU216HW,2013-02-10 20:05:00,
2013-02-10 13:10:00,30.6,24.2,29.87,WNW,293,6.0,12.1,77,0.00,,,0.01,WUHU216HW,2013-02-10 20:10:00,
2013-02-10 13:15:00,30.8,24.8,29.87,SW,225,5.1,10.3,78,0.00,,,0.01,WUHU216HW,2013-02-10 20:15:00,
2013-02-10 13:20:00,31.0,24.6,29.87,SW,225,4.7,14.3,77,0.00,,,0.01,WUHU216HW,2013-02-10 20:20:00,
2013-02-10 13:25:00,31.1,24.5,29.87,WNW,293,6.3,14.3,76,0.00,,,0.01,WUHU216HW,2013-02-10 20:25:00,
2013-02-10 13:30:00,30.8,24.1,29.87,West,270,4.9,14.3,76,0.00,,,0.01,WUHU216HW,2013-02-10 20:30:00,
2013-02-10 13:35:00,30.8,24.4,29.87,NNW,338,2.2,14.3,77,0.00,,,0.01,WUHU216HW,2013-02-10 20:35:00,
2013-02-10 13:40:00,30.8,24.1,29.87,WNW,293,5.4,11.6,76,0.00,,,0.01,WUHU216HW,2013-02-10 20:40:00,
2013-02-10 13:45:00,30.6,24.0,29.87,WSW,248,3.4,12.8,76,0.00,,,0.01,WUHU216HW,2013-02-10 20:45:00,
2013-02-10 13:50:00,30.2,23.9,29.87,West,270,8.7,12.8,77,0.00,,,0.01,WUHU216HW,2013-02-10 20:50:00,
2013-02-10 13:55:00,30.1,23.7,29.86,South,180,6.3,12.5,77,0.00,,,0.01,WUHU216HW,2013-02-10 20:55:00,
2013-02-10 14:00:00,30.4,24.4,29.86,SW,225,4.0,12.1,78,0.00,,,0.01,WUHU216HW,2013-02-10 21:00:00,
2013-02-10 14:05:00,30.8,24.4,29.86,SE,135,9.8,12.1,77,0.00,,,0.01,WUHU216HW,2013-02-10 21:05:00,
2013-02-10 14:10:00,30.8,24.4,29.86,WSW,248,4.5,12.1,77,0.00,,,0.01,WUHU216HW,2013-02-10 21:10:00,
2013-02-10 14:15:00,31.0,24.9,29.86,SW,225,4.0,9.8,78,0.00,,,0.01,WUHU216HW,2013-02-10 21:15:00,
2013-02-10 14:20:00,31.1,25.1,29.86,SW,225,5.4,9.8,78,0.00,,,0.01,WUHU216HW,2013-02-10 21:20:00,
2013-02-10 14:25:00,31.1,24.8,29.86,WSW,248,6.5,10.3,77,0.00,,,0.01,WUHU216HW,2013-02-10 21:25:00,
2013-02-10 14:30:00,30.8,24.1,29.86,WNW,293,6.0,10.7,76,0.00,,,0.01,WUHU216HW,2013-02-10 21:30:00,
2013-02-10 14:35:00,30.6,24.2,29.86,SSW,203,4.0,10.7,77,0.00,,,0.01,WUHU216HW,2013-02-10 21:35:00,
2013-02-10 14:40:00,30.8,24.8,29.86,SSW,203,2.5,10.3,78,0.00,,,0.01,WUHU216HW,2013-02-10 21:40:00,
2013-02-10 14:45:00,30.8,24.8,29.86,SW,225,4.7,12.8,78,0.00,,,0.01,WUHU216HW,2013-02-10 21:45:00,
2013-02-10 14:50:00,30.8,25.0,29.86,WSW,248,5.4,12.8,79,0.00,,,0.01,WUHU216HW,2013-02-10 21:50:00,
2013-02-10 14:55:00,31.1,25.1,29.86,SW,225,8.1,10.7,78,0.00,,,0.01,WUHU216HW,2013-02-10 21:55:00,
2013-02-10 15:00:00,31.3,25.3,29.86,SW,225,3.4,11.0,78,0.00,,,0.01,WUHU216HW,2013-02-10 22:00:00,
2013-02-10 15:05:00,31.0,24.6,29.86,SW,225,6.0,12.3,77,0.00,,,0.01,WUHU216HW,2013-02-10 22:05:00,
2013-02-10 15:10:00,30.6,24.6,29.86,SW,225,4.7,12.3,78,0.00,,,0.01,WUHU216HW,2013-02-10 22:10:00,
2013-02-10 15:15:00,30.6,24.6,29.86,SW,225,6.3,9.8,78,0.00,,,0.01,WUHU216HW,2013-02-10 22:15:00,
2013-02-10 15:20:00,30.6,24.6,29.86,WSW,248,3.1,9.8,78,0.00,,,0.01,WUHU216HW,2013-02-10 22:20:00,
2013-02-10 15:25:00,30.6,24.6,29.86,SW,225,3.8,6.9,78,0.00,,,0.01,WUHU216HW,2013-02-10 22:25:00,
2013-02-10 15:30:00,30.6,24.6,29.86,SW,225,6.9,7.4,78,0.00,,,0.01,WUHU216HW,2013-02-10 22:30:00,
2013-02-10 15:35:00,30.4,24.4,29.86,West,270,4.3,7.6,78,0.00,,,0.01,WUHU216HW,2013-02-10 22:35:00,
2013-02-10 15:40:00,30.2,24.2,29.87,NNW,338,7.6,9.8,78,0.00,,,0.01,WUHU216HW,2013-02-10 22:40:00,
2013-02-10 15:45:00,29.5,23.5,29.87,WNW,293,6.9,11.2,78,0.00,,,0.01,WUHU216HW,2013-02-10 22:45:00,
2013-02-10 15:50:00,27.7,22.3,29.87,WNW,293,9.8,14.1,80,0.00,,,0.01,WUHU216HW,2013-02-10 22:50:00,
2013-02-10 15:55:00,26.6,22.2,29.87,WSW,248,7.6,14.1,83,0.00,,,0.01,WUHU216HW,2013-02-10 22:55:00,
2013-02-10 16:00:00,26.3,21.8,29.87,WSW,248,3.4,10.5,83,0.00,,,0.01,WUHU216HW,2013-02-10 23:00:00,
2013-02-10 16:05:00,25.9,21.2,29.87,WNW,293,4.9,9.2,82,0.00,,,0.01,WUHU216HW,2013-02-10 23:05:00,
2013-02-10 16:10:00,25.9,21.2,29.88,West,270,6.9,7.6,82,0.00,,,0.01,WUHU216HW,2013-02-10 23:10:00,
2013-02-10 16:15:00,26.1,21.3,29.87,NW,315,3.8,6.9,82,0.00,,,0.01,WUHU216HW,2013-02-10 23:15:00,
2013-02-10 16:20:00,26.1,21.3,29.88,West,270,6.3,9.4,82,0.00,,,0.01,WUHU216HW,2013-02-10 23:20:00,
2013-02-10 16:25:00,25.7,21.0,29.88,WNW,293,7.6,9.4,82,0.00,,,0.01,WUHU216HW,2013-02-10 23:25:00,
2013-02-10 16:30:00,25.7,21.0,29.88,West,270,5.8,7.6,82,0.00,,,0.01,WUHU216HW,2013-02-10 23:30:00,
2013-02-10 16:35:00,25.6,20.5,29.88,SW,225,3.8,8.3,81,0.00,,,0.01,WUHU216HW,2013-02-10 23:35:00,
2013-02-10 16:40:00,25.6,20.5,29.88,West,270,6.5,9.4,81,0.00,,,0.01,WUHU216HW,2013-02-10 23:40:00,
2013-02-10 16:45:00,25.4,20.3,29.88,WSW,248,5.4,9.4,81,0.00,,,0.01,WUHU216HW,2013-02-10 23:45:00,
2013-02-10 16:50:00,25.2,20.3,29.89,WNW,293,5.8,8.5,81,0.00,,,0.01,WUHU216HW,2013-02-10 23:50:00,
2013-02-10 16:55:00,25.0,19.8,29.89,WNW,293,9.4,9.4,80,0.00,,,0.01,WUHU216HW,2013-02-10 23:55:00,
2013-02-10 17:00:00,25.0,19.8,29.89,West,270,4.0,9.4,80,0.00,,,0.01,WUHU216HW,2013-02-11 00:00:00,
2013-02-10 17:05:00,25.2,20.0,29.89,SW,225,7.6,10.7,80,0.00,,,0.01,WUHU216HW,2013-02-11 00:05:00,
2013-02-10 17:10:00,25.0,19.8,29.89,SSW,203,1.8,10.7,80,0.00,,,0.01,WUHU216HW,2013-02-11 00:10:00,
2013-02-10 17:15:00,25.0,20.1,29.89,West,270,3.6,10.3,81,0.00,,,0.01,WUHU216HW,2013-02-11 00:15:00,
2013-02-10 17:20:00,24.8,19.9,29.89,West,270,1.3,10.3,81,0.00,,,0.01,WUHU216HW,2013-02-11 00:20:00,
2013-02-10 17:25:00,24.8,19.6,29.89,WSW,248,2.0,5.8,80,0.00,,,0.01,WUHU216HW,2013-02-11 00:25:00,
2013-02-10 17:30:00,24.7,19.4,29.90,WSW,248,4.3,6.7,80,0.00,,,0.01,WUHU216HW,2013-02-11 00:30:00,
2013-02-10 17:35:00,24.7,19.1,29.90,WSW,248,4.5,6.7,79,0.00,,,0.01,WUHU216HW,2013-02-11 00:35:00,
2013-02-10 17:40:00,24.7,19.1,29.90,West,270,4.7,5.6,79,0.00,,,0.01,WUHU216HW,2013-02-11 00:40:00,
2013-02-10 17:45:00,24.5,18.9,29.90,West,270,6.0,7.2,79,0.00,,,0.01,WUHU216HW,2013-02-11 00:45:00,
2013-02-10 17:50:00,24.5,18.9,29.90,SSE,158,8.9,8.9,79,0.00,,,0.01,WUHU216HW,2013-02-11 00:50:00,
2013-02-10 17:55:00,24.3,18.7,29.90,SW,225,6.5,8.9,79,0.00,,,0.01,WUHU216HW,2013-02-11 00:55:00,
2013-02-10 18:00:00,24.3,18.7,29.90,SW,225,3.4,8.9,79,0.00,,,0.01,WUHU216HW,2013-02-11 01:00:00,
2013-02-10 18:05:00,24.1,18.5,29.90,SW,225,4.0,8.1,79,0.00,,,0.01,WUHU216HW,2013-02-11 01:05:00,
2013-02-10 18:10:00,24.1,18.5,29.90,West,270,6.7,8.1,79,0.00,,,0.01,WUHU216HW,2013-02-11 01:10:00,
2013-02-10 18:15:00,24.1,18.5,29.90,West,270,5.1,7.6,79,0.00,,,0.01,WUHU216HW,2013-02-11 01:15:00,
2013-02-10 18:20:00,24.1,18.3,29.90,WSW,248,9.4,9.4,78,0.00,,,0.01,WUHU216HW,2013-02-11 01:20:00,
2013-02-10 18:25:00,23.9,18.4,29.90,West,270,9.8,9.8,79,0.00,,,0.01,WUHU216HW,2013-02-11 01:25:00,
2013-02-10 18:30:00,23.9,18.4,29.90,WSW,248,4.7,9.8,79,0.00,,,0.01,WUHU216HW,2013-02-11 01:30:00,
2013-02-10 18:35:00,23.8,17.9,29.90,West,270,3.6,8.9,78,0.00,,,0.01,WUHU216HW,2013-02-11 01:35:00,
2013-02-10 18:40:00,23.8,17.9,29.91,WSW,248,2.5,6.3,78,0.00,,,0.01,WUHU216HW,2013-02-11 01:40:00,
2013-02-10 18:45:00,23.8,17.9,29.91,WSW,248,4.9,6.3,78,0.00,,,0.01,WUHU216HW,2013-02-11 01:45:00,
2013-02-10 18:50:00,23.8,18.3,29.91,WSW,248,0.9,5.4,79,0.00,,,0.01,WUHU216HW,2013-02-11 01:50:00,
2013-02-10 18:55:00,23.8,17.9,29.91,NW,315,3.1,5.4,78,0.00,,,0.01,WUHU216HW,2013-02-11 01:55:00,
2013-02-10 19:00:00,23.8,18.3,29.91,WNW,293,1.3,4.5,79,0.00,,,0.01,WUHU216HW,2013-02-11 02:00:00,
2013-02-10 19:05:00,23.8,18.5,29.91,WNW,293,2.0,4.7,80,0.00,,,0.01,WUHU216HW,2013-02-11 02:05:00,
2013-02-10 19:10:00,23.9,18.7,29.92,SW,225,6.0,6.0,80,0.00,,,0.01,WUHU216HW,2013-02-11 02:10:00,
2013-02-10 19:15:00,23.8,18.3,29.92,WSW,248,4.0,6.0,79,0.00,,,0.01,WUHU216HW,2013-02-11 02:15:00,
2013-02-10 19:20:00,23.8,17.9,29.92,SW,225,1.8,6.0,78,0.00,,,0.01,WUHU216HW,2013-02-11 02:20:00,
2013-02-10 19:25:00,23.8,18.3,29.92,SSW,203,0.7,5.6,79,0.00,,,0.01,WUHU216HW,2013-02-11 02:25:00,
2013-02-10 19:30:00,23.8,18.3,29.92,SW,225,2.0,3.8,79,0.00,,,0.01,WUHU216HW,2013-02-11 02:30:00,
2013-02-10 19:35:00,23.6,18.1,29.92,WSW,248,0.4,3.8,79,0.00,,,0.01,WUHU216HW,2013-02-11 02:35:00,
2013-02-10 19:40:00,23.6,18.1,29.92,WSW,248,2.7,3.4,79,0.00,,,0.01,WUHU216HW,2013-02-11 02:40:00,
2013-02-10 19:45:00,23.4,17.9,29.92,WSW,248,4.7,4.7,79,0.00,,,0.01,WUHU216HW,2013-02-11 02:45:00,
2013-02-10 19:50:00,23.4,17.9,29.92,SW,225,2.5,4.7,79,0.00,,,0.01,WUHU216HW,2013-02-11 02:50:00,
2013-02-10 19:55:00,23.4,17.9,29.92,West,270,1.3,5.4,79,0.00,,,0.01,WUHU216HW,2013-02-11 02:55:00,
2013-02-10 20:00:00,23.2,17.7,29.92,West,270,2.0,5.4,79,0.00,,,0.01,WUHU216HW,2013-02-11 03:00:00,
2013-02-10 20:05:00,23.0,17.6,29.92,WSW,248,3.6,4.7,79,0.00,,,0.01,WUHU216HW,2013-02-11 03:05:00,
2013-02-10 20:10:00,23.0,17.6,29.92,WSW,248,1.6,4.7,79,0.00,,,0.01,WUHU216HW,2013-02-11 03:10:00,
2013-02-10 20:15:00,23.0,17.6,29.92,West,270,4.3,5.6,79,0.00,,,0.01,WUHU216HW,2013-02-11 03:15:00,
2013-02-10 20:20:00,23.0,17.6,29.92,West,270,3.4,5.6,79,0.00,,,0.01,WUHU216HW,2013-02-11 03:20:00,
2013-02-10 20:25:00,22.9,17.4,29.93,WSW,248,2.5,4.3,79,0.00,,,0.01,WUHU216HW,2013-02-11 03:25:00,
2013-02-10 20:30:00,22.9,17.4,29.93,West,270,1.3,4.0,79,0.00,,,0.01,WUHU216HW,2013-02-11 03:30:00,
2013-02-10 20:35:00,22.7,17.2,29.93,West,270,2.9,4.0,79,0.00,,,0.01,WUHU216HW,2013-02-11 03:35:00,
2013-02-10 20:40:00,22.7,17.2,29.93,SW,225,3.1,3.8,79,0.00,,,0.01,WUHU216HW,2013-02-11 03:40:00,
2013-02-10 20:45:00,22.5,17.0,29.93,SW,225,1.1,4.5,79,0.00,,,0.01,WUHU216HW,2013-02-11 03:45:00,
2013-02-10 20:50:00,22.3,16.8,29.94,WSW,248,1.8,4.5,79,0.00,,,0.01,WUHU216HW,2013-02-11 03:50:00,
2013-02-10 20:55:00,22.3,16.8,29.94,WSW,248,1.8,3.6,79,0.00,,,0.01,WUHU216HW,2013-02-11 03:55:00,
2013-02-10 21:00:00,22.1,16.3,29.94,WSW,248,3.1,4.7,78,0.00,,,0.01,WUHU216HW,2013-02-11 04:00:00,
2013-02-10 21:05:00,22.0,16.1,29.94,SW,225,1.8,6.0,78,0.00,,,0.01,WUHU216HW,2013-02-11 04:05:00,
2013-02-10 21:10:00,21.8,16.3,29.94,WSW,248,1.8,7.2,79,0.00,,,0.01,WUHU216HW,2013-02-11 04:10:00,
2013-02-10 21:15:00,21.6,16.1,29.94,SW,225,2.9,7.2,79,0.00,,,0.01,WUHU216HW,2013-02-11 04:15:00,
2013-02-10 21:20:00,21.4,15.9,29.94,SW,225,1.6,3.8,79,0.00,,,0.01,WUHU216HW,2013-02-11 04:20:00,
2013-02-10 21:25:00,21.2,15.4,29.94,SW,225,1.3,3.1,78,0.00,,,0.01,WUHU216HW,2013-02-11 04:25:00,
2013-02-10 21:30:00,21.1,15.2,29.94,WSW,248,2.0,3.6,78,0.00,,,0.01,WUHU216HW,2013-02-11 04:30:00,
2013-02-10 21:35:00,20.5,14.7,29.94,WSW,248,1.3,3.6,78,0.00,,,0.01,WUHU216HW,2013-02-11 04:35:00,
2013-02-10 21:40:00,20.2,14.3,29.94,WSW,248,2.2,2.9,78,0.00,,,0.01,WUHU216HW,2013-02-11 04:40:00,
2013-02-10 21:45:00,19.6,13.8,29.94,SW,225,1.8,4.5,78,0.00,,,0.01,WUHU216HW,2013-02-11 04:45:00,
2013-02-10 21:50:00,19.3,13.4,29.94,SSW,203,4.5,4.5,78,0.00,,,0.01,WUHU216HW,2013-02-11 04:50:00,
2013-02-10 21:55:00,19.1,13.2,29.94,SSW,203,2.5,4.5,78,0.00,,,0.01,WUHU216HW,2013-02-11 04:55:00,
2013-02-10 22:00:00,18.9,13.1,29.94,SSW,203,2.9,4.7,78,0.00,,,0.01,WUHU216HW,2013-02-11 05:00:00,
2013-02-10 22:05:00,18.5,12.7,29.94,SW,225,2.2,4.7,78,0.00,,,0.01,WUHU216HW,2013-02-11 05:05:00,
2013-02-10 22:10:00,18.2,12.7,29.94,WSW,248,5.4,5.4,79,0.00,,,0.01,WUHU216HW,2013-02-11 05:10:00,
2013-02-10 22:15:00,18.0,12.5,29.93,SW,225,1.8,5.4,79,0.00,,,0.01,WUHU216HW,2013-02-11 05:15:00,
2013-02-10 22:20:00,17.8,12.3,29.93,WSW,248,3.4,5.4,79,0.00,,,0.01,WUHU216HW,2013-02-11 05:20:00,
2013-02-10 22:25:00,17.6,12.4,29.94,WSW,248,4.3,4.9,80,0.00,,,0.01,WUHU216HW,2013-02-11 05:25:00,
2013-02-10 22:30:00,17.5,12.0,29.94,SSW,203,5.8,6.5,79,0.00,,,0.01,WUHU216HW,2013-02-11 05:30:00,
2013-02-10 22:35:00,17.5,12.2,29.94,West,270,2.5,6.5,80,0.00,,,0.01,WUHU216HW,2013-02-11 05:35:00,
2013-02-10 22:40:00,17.5,12.2,29.94,West,270,4.3,6.7,80,0.00,,,0.01,WUHU216HW,2013-02-11 05:40:00,
2013-02-10 22:45:00,17.5,12.2,29.93,SW,225,3.8,6.7,80,0.00,,,0.01,WUHU216HW,2013-02-11 05:45:00,
2013-02-10 22:50:00,17.5,12.2,29.94,West,270,4.7,6.7,80,0.00,,,0.01,WUHU216HW,2013-02-11 05:50:00,
2013-02-10 22:55:00,17.3,12.1,29.94,SW,225,4.0,6.9,80,0.00,,,0.01,WUHU216HW,2013-02-11 05:55:00,
2013-02-10 23:00:00,17.1,12.0,29.93,WSW,248,4.5,7.6,80,0.00,,,0.01,WUHU216HW,2013-02-11 06:00:00,
2013-02-10 23:05:00,16.9,11.8,29.93,SW,225,4.0,7.6,80,0.00,,,0.01,WUHU216HW,2013-02-11 06:05:00,
2013-02-10 23:10:00,16.7,11.6,29.93,WSW,248,8.7,8.7,80,0.00,,,0.01,WUHU216HW,2013-02-11 06:10:00,
2013-02-10 23:15:00,16.6,11.4,29.93,West,270,4.7,8.7,80,0.00,,,0.01,WUHU216HW,2013-02-11 06:15:00,
2013-02-10 23:20:00,16.2,11.2,29.93,West,270,5.4,8.7,80,0.00,,,0.01,WUHU216HW,2013-02-11 06:20:00,
2013-02-10 23:25:00,16.2,11.2,29.93,SW,225,3.8,7.6,80,0.00,,,0.01,WUHU216HW,2013-02-11 06:25:00,
2013-02-10 23:30:00,15.8,10.8,29.93,SW,225,4.7,8.5,80,0.00,,,0.01,WUHU216HW,2013-02-11 06:30:00,
2013-02-10 23:35:00,15.8,10.8,29.93,SW,225,3.4,8.9,80,0.00,,,0.01,WUHU216HW,2013-02-11 06:35:00,
2013-02-10 23:40:00,15.7,10.6,29.93,SW,225,4.3,8.9,80,0.00,,,0.01,WUHU216HW,2013-02-11 06:40:00,
2013-02-10 23:45:00,15.5,10.4,29.93,SW,225,3.4,6.9,80,0.00,,,0.01,WUHU216HW,2013-02-11 06:45:00,
2013-02-10 23:50:00,15.1,10.1,29.93,WSW,248,3.6,8.5,80,0.00,,,0.01,WUHU216HW,2013-02-11 06:50:00,
2013-02-10 23:55:00,14.9,9.9,29.93,WSW,248,4.5,8.5,80,0.00,,,0.01,WUHU216HW,2013-02-11 06:55:00,